FW1784 Weather Reports


Display with metric or nautical units.
time (UTC)temp
F
wind
direction
speed
MPH
gust
MPH
rain 1hr
in
rain 24hr
in
rain mn
in
humidity
%
barometer
mb
20260906053102 62 43 0.0 0.0 0.00 0.00 0.00 93 1012.7
20260906051505 62 43 0.0 0.0 0.00 0.00 0.00 93 1012.7
20260906050109 62 43 0.0 0.0 0.00 0.00 0.00 92 1012.8
20260906044603 62 43 0.0 1.0 0.00 0.00 0.00 92 1012.9
20260906043104 62 43 0.0 0.0 0.00 0.00 0.00 91 1012.7
20260906041503 62 43 0.0 0.0 0.00 0.00 0.00 92 1012.7
20260906040006 62 43 0.0 0.0 0.00 0.00 0.00 91 1012.6
20260906034639 63 43 0.0 0.0 0.00 0.00 0.00 90 1012.6
20260906033002 63 43 0.0 0.0 0.00 0.00 0.00 90 1012.6
20260906031604 63 43 0.0 1.0 0.00 0.00 0.00 89 1012.4
20260906030002 64 43 0.0 0.0 0.00 0.00 0.00 90 1012.3
20260906024502 64 43 0.0 0.0 0.00 0.00 0.00 88 1012.4
20260906023001 64 43 0.0 0.0 0.00 0.00 0.00 90 1012.2
20260906021503 64 43 0.0 0.0 0.00 0.00 0.00 90 1012.4
20260906020002 64 43 0.0 0.0 0.00 0.00 0.00 89 1012.2
20260906014602 64 43 0.0 0.0 0.00 0.00 0.00 87 1012.1
20260906013003 64 43 0.0 0.0 0.00 0.00 0.00 85 1012.0
20260906011603 65 43 0.0 0.0 0.00 0.00 0.00 84 1012.1
20260906010003 65 43 0.0 1.0 0.00 0.00 0.00 82 1011.9
20260906004604 65 43 0.0 1.0 0.00 0.00 0.00 85 1011.8
20260906003103 66 49 0.0 0.0 0.00 0.00 0.00 84 1011.7
20260906001603 66 49 0.0 1.0 0.00 0.00 0.00 81 1011.5
20260906000003 67 49 0.0 0.0 0.00 0.00 0.00 84 1011.5
20260905234621 67 49 0.0 0.0 0.00 0.00 0.00 80 1011.5
20260905233004 68 52 0.0 0.0 0.00 0.00 0.00 82 1011.3
20260905231607 68 51 0.0 3.0 0.00 0.00 0.00 83 1011.3
20260905230002 68 302 0.0 0.0 0.00 0.00 0.00 88 1011.2
20260905224621 69 302 0.0 1.0 0.00 0.00 0.00 87 1011.0
20260905223103 69 302 0.0 1.0 0.00 0.00 0.00 86 1011.0
20260905221505 69 302 0.0 0.0 0.00 0.00 0.00 87 1010.9
20260905220115 69 302 0.0 2.0 0.00 0.00 0.00 87 1010.9
20260905214605 69 302 0.0 0.0 0.00 0.00 0.00 87 1010.9
20260905213102 69 302 0.0 0.0 0.00 0.00 0.00 88 1010.8
20260905211602 69 302 0.0 0.0 0.00 0.00 0.00 86 1010.5
20260905210002 70 302 0.0 2.0 0.00 0.00 0.00 81 1010.3
20260905204601 71 360 0.0 3.0 0.00 0.00 0.00 73 1010.5
20260905203114 74 59 1.0 4.0 0.00 0.00 0.00 69 1010.2
20260905201521 74 237 0.0 2.0 0.00 0.00 0.00 66 1010.0
20260905200002 72 303 1.0 2.0 0.00 0.00 0.00 73 1010.1
20260905194603 73 302 0.0 0.0 0.00 0.00 0.00 74 1010.0
20260905193103 74 302 0.0 2.0 0.00 0.00 0.00 69 1010.1
20260905191502 74 346 2.0 4.0 0.00 0.00 0.00 68 1010.1
20260905190103 73 132 0.0 3.0 0.00 0.00 0.00 70 1010.1
20260905184509 73 43 0.0 2.0 0.00 0.00 0.00 70 1010.0
20260905183003 73 80 1.0 4.0 0.00 0.00 0.00 67 1010.1
20260905181606 74 32 0.0 4.0 0.00 0.00 0.00 67 1010.2
20260905180002 75 71 1.0 5.0 0.00 0.00 0.00 62 1010.1
20260905174606 75 28 1.0 5.0 0.00 0.00 0.00 61 1010.1
20260905173102 74 360 0.0 4.0 0.00 0.00 0.00 67 1010.2
20260905171502 75 54 1.0 5.0 0.00 0.00 0.00 61 1010.3
20260905170106 75 96 2.0 7.0 0.00 0.00 0.00 62 1010.4
20260905164606 75 337 2.0 8.0 0.00 0.00 0.00 64 1010.5
20260905163005 75 42 4.0 8.0 0.00 0.00 0.00 61 1010.5
20260905161603 74 69 2.0 6.0 0.00 0.00 0.00 64 1010.4
20260905160110 72 119 0.0 8.0 0.00 0.00 0.00 67 1010.5
20260905154502 73 355 3.0 6.0 0.00 0.00 0.00 64 1010.5
20260905153002 73 80 2.0 7.0 0.00 0.00 0.00 62 1010.5
20260905151605 73 84 4.0 9.0 0.00 0.00 0.00 62 1010.6
20260905150004 74 310 2.0 10.0 0.00 0.00 0.00 60 1010.6
20260905144503 73 337 3.0 12.0 0.00 0.00 0.00 63 1010.7
20260905143106 73 93 4.0 9.0 0.00 0.00 0.00 65 1010.4
20260905141502 72 53 1.0 5.0 0.00 0.00 0.00 68 1010.4
20260905140104 72 360 3.0 9.0 0.00 0.00 0.00 65 1010.4
20260905134502 72 71 1.0 8.0 0.00 0.00 0.00 66 1010.3
20260905133006 71 49 1.0 8.0 0.00 0.00 0.00 72 1010.5
20260905131602 70 74 1.0 11.0 0.00 0.00 0.00 72 1010.8
20260905124603 65 138 0.0 4.0 0.00 0.00 0.00 93 1011.0
20260905123105 63 96 0.0 0.0 0.00 0.00 0.00 97 1010.9
20260905121503 61 96 0.0 0.0 0.00 0.00 0.00 97 1010.9
20260905114510 59 96 0.0 0.0 0.00 0.00 0.00 98 1010.6
20260905113002 59 96 0.0 0.0 0.00 0.00 0.00 98 1010.4
20260905111629 58 96 0.0 0.0 0.00 0.00 0.00 97 1010.4
20260905110113 58 96 0.0 0.0 0.00 0.00 0.00 97 1010.1
20260905104507 58 96 0.0 0.0 0.00 0.00 0.00 97 1009.7
20260905103009 57 96 0.0 0.0 0.00 0.00 0.00 97 1009.7
20260905101506 58 96 0.0 0.0 0.00 0.00 0.00 97 1009.4
20260905100053 58 96 0.0 0.0 0.00 0.00 0.00 97 1009.4
20260905094704 58 96 0.0 0.0 0.00 0.00 0.00 96 1009.4
20260905093057 58 96 0.0 0.0 0.00 0.00 0.00 96 1009.4
20260905091556 58 96 0.0 0.0 0.00 0.00 0.00 96 1009.4
20260905090049 58 96 0.0 0.0 0.00 0.00 0.00 96 1009.4
20260905084558 59 96 0.0 0.0 0.00 0.00 0.00 96 1009.4
20260905083045 59 96 0.0 0.0 0.00 0.00 0.00 95 1009.4
20260905081543 59 96 0.0 0.0 0.00 0.00 0.00 95 1009.4
20260905080027 59 96 0.0 0.0 0.00 0.00 0.00 94 1009.3
20260905074526 60 96 0.0 0.0 0.00 0.00 0.00 94 1009.4
20260905073024 60 96 0.0 0.0 0.00 0.00 0.00 94 1009.5
20260905071521 60 96 0.0 0.0 0.00 0.00 0.00 93 1009.8
20260905070004 60 96 0.0 0.0 0.00 0.00 0.00 93 1009.9
20260905064503 60 96 0.0 0.0 0.00 0.25 0.00 93 1009.9
20260905063003 60 96 0.0 0.0 0.00 0.25 0.00 93 1010.0
20260905061607 61 96 0.0 0.0 0.00 0.25 0.00 92 1010.0
20260905060003 61 96 0.0 0.0 0.00 0.25 0.00 92 1010.2
20260905054502 62 96 0.0 0.0 0.00 0.31 0.00 91 1010.1